CAPE
0 0 0 0 0 0 0 0 0 0 0 0 0 0 0 0 0 0 0 0 0 0 13 564 747 781 892 1004 777 631 663 845 790 748 521 379 318 133 76 56 85 104 85 6 0 1 1 0 0
0 0 0 0 0 0 0 0 0 0 0 0 0 0 0 0 0 0 0 0 0 0 14 273 565 792 885 833 773 759 820 787 719 389 132 48 85 9 3 1 0 0 1 1 0 0 0 0 0
0 0 0 0 0 0 0 0 0 0 0 0 0 0 0 0 0 0 0 0 0 0 0 126 375 535 893 827 734 692 665 503 347 120 34 3 2 2 2 0 0 0 0 0 0 0 0 0 0
0 0 0 0 0 0 0 0 0 0 0 0 0 0 0 0 0 0 0 0 0 0 0 38 259 376 531 539 524 501 491 236 14 2 3 2 3 4 0 0 0 0 0 0 0 0 0 0 0
0 0 0 0 0 0 0 0 0 0 0 0 0 0 0 0 0 0 0 0 0 0 0 0 52 246 214 278 248 132 74 10 0 1 3 4 4 0 0 0 0 0 0 0 0 0 0 0 0
0 0 0 0 0 0 0 0 0 0 0 0 0 0 0 0 0 0 0 0 0 0 0 0 0 13 30 83 119 1 0 0 3 3 2 2 0 0 0 0 0 0 0 0 0 0 0 0 0
0 0 0 0 0 0 0 0 0 0 0 0 0 0 0 0 0 0 0 0 0 0 0 0 0 0 2 4 1 0 0 2 2 4 0 0 0 0 0 0 0 0 0 0 0 0 0 0 0
0 0 0 0 0 0 0 0 0 0 0 0 0 0 0 0 0 0 0 0 0 0 0 0 0 0 0 0 1 1 3 1 1 0 0 0 0 0 0 0 0 0 0 0 0 0 0 0 0
0 0 0 0 0 0 0 0 0 0 0 0 0 0 0 0 0 0 0 0 0 0 0 0 0 0 0 0 0 0 1 0 0 0 0 0 0 0 0 0 0 0 0 0 0 0 0 0 0
0 0 0 0 0 0 0 0 0 0 0 0 0 0 0 0 0 0 0 0 0 0 0 0 0 0 0 0 0 0 0 0 0 0 0 0 0 0 0 0 0 0 0 0 0 0 0 0 0
0 0 0 0 0 0 0 0 0 0 0 0 0 0 0 0 0 0 0 0 0 0 0 0 0 0 0 0 0 0 0 0 0 0 0 0 0 0 0 0 0 0 0 0 0 0 0 0 0
0 0 0 0 0 0 0 0 0 0 0 0 0 0 0 0 0 0 0 0 0 0 0 0 0 0 0 0 0 0 0 0 0 0 0 0 0 0 0 0 0 0 0 0 0 0 0 0 0
0 0 0 0 0 0 0 0 0 0 0 0 0 0 0 0 0 0 0 0 0 0 0 0 0 0 0 0 0 0 0 0 0 0 0 0 0 0 0 0 0 0 0 0 0 0 0 0 0
0 0 0 0 0 0 0 0 0 0 0 0 0 0 0 0 0 0 0 0 0 0 0 0 0 0 0 0 0 0 0 0 0 0 0 0 0 0 0 0 0 0 0 0 0 0 0 0 0
0 0 0 0 0 0 0 0 0 0 0 0 0 0 0 0 0 0 0 0 0 0 0 0 0 0 0 0 0 0 0 0 0 0 0 0 0 0 0 0 0 0 0 0 0 0 0 0 0
0 0 0 0 0 0 0 0 0 0 0 0 0 0 0 0 0 0 0 0 0 0 0 0 0 0 0 0 0 0 0 0 0 0 0 0 0 0 0 0 0 0 0 0 0 0 0 0 0
0 0 0 0 0 0 0 0 0 0 0 0 0 0 0 0 0 0 0 0 0 0 0 0 0 0 0 0 0 0 0 0 0 0 0 0 0 0 0 0 0 0 0 0 0 0 0 0 0
0 0 0 0 0 0 0 0 0 0 0 0 0 0 0 0 0 0 0 0 0 0 0 0 0 0 0 0 0 0 0 0 0 0 0 0 0 0 0 0 0 0 0 0 0 0 0 0 0
0 0 0 0 0 0 0 0 0 0 0 0 0 0 0 0 0 0 0 0 0 0 0 0 0 0 0 0 0 0 0 0 0 0 0 0 0 0 0 0 0 0 0 0 0 0 0 0 0
0 0 0 0 0 0 0 0 0 0 0 0 0 0 0 0 0 0 0 0 0 0 0 0 0 0 0 0 0 0 0 0 0 0 0 0 0 0 0 0 0 0 0 0 0 0 0 0 0
0 0 0 0 0 0 0 0 0 0 0 0 0 0 0 0 0 0 0 0 0 0 0 0 0 0 0 0 0 0 0 0 0 0 0 0 0 0 0 0 0 0 0 0 0 0 0 0 0
0 0 0 0 0 0 0 0 0 0 0 0 0 0 0 0 0 0 0 0 0 0 0 0 0 0 0 0 0 0 0 0 0 0 0 0 0 0 0 0 0 0 0 0 0 0 0 0 0
0 0 0 0 0 0 0 0 0 0 0 0 0 0 0 0 0 0 0 0 0 0 0 0 0 0 0 0 0 0 0 0 0 0 0 0 0 0 0 0 0 0 0 0 0 0 0 0 0
0 0 0 0 0 0 0 0 0 0 0 0 0 0 0 0 0 0 0 0 0 0 0 0 0 0 0 0 0 0 0 0 0 0 0 0 0 0 0 0 0 0 0 0 0 0 0 0 0
0 0 0 0 0 0 0 0 0 0 0 0 0 0 0 0 0 0 0 0 0 0 0 0 0 0 0 0 0 0 0 0 0 0 0 0 0 0 0 0 0 0 0 0 0 0 0 0 0
0 0 0 0 0 0 0 0 0 0 0 0 0 0 0 0 0 0 0 0 0 0 0 0 0 0 0 0 0 0 0 0 0 0 0 0 0 0 0 0 0 0 0 0 0 0 0 0 0
0 0 0 0 0 0 0 0 0 0 0 0 0 0 0 0 0 0 0 0 0 0 0 0 0 0 0 0 0 0 0 0 0 0 0 0 0 0 0 0 0 0 0 0 0 0 0 0 0
0 0 0 0 0 0 0 0 0 0 0 0 0 0 0 0 0 0 0 0 0 0 0 0 0 0 0 0 0 0 0 0 0 0 0 0 0 0 0 0 0 0 0 0 0 0 0 0 0
0 0 0 0 0 0 0 0 0 0 0 0 0 0 0 0 0 0 0 0 0 0 0 0 0 0 0 0 0 0 0 0 0 0 0 0 0 0 0 0 0 0 0 0 0 0 0 0 0
0 0 0 0 0 0 0 0 0 0 0 0 0 0 0 0 0 0 0 0 0 0 0 0 0 0 0 0 0 0 0 0 0 0 0 0 0 0 0 0 0 0 0 0 0 0 0 0 0
CIN
0 0 0 0 0 0 0 0 0 0 0 0 0 0 0 0 0 0 0 0 0 0 -437 -229 -122 -73 -33 -7 -12 -22 -9 -2 -2 -2 -4 -19 -27 -85 -80 -114 -94 -88 -108 -109 -3 0 0 0 0
0 0 0 0 0 0 0 0 0 0 0 0 0 0 0 0 0 0 0 0 0 0 -452 -344 -193 -95 -46 -37 -29 -15 -3 -2 -2 -48 -123 -186 -145 -35 -1 -1 0 0 0 0 0 0 0 0 0
0 0 0 0 0 0 0 0 0 0 0 0 0 0 0 0 0 0 0 0 0 0 0 -415 -252 -180 -70 -53 -54 -44 -32 -73 -110 -214 -252 -217 -53 0 0 0 0 0 0 0 0 0 0 0 0
0 0 0 0 0 0 0 0 0 0 0 0 0 0 0 0 0 0 0 0 0 0 0 -453 -294 -217 -151 -124 -118 -91 -84 -181 -363 0 -1 -2 0 0 0 0 0 0 0 0 0 0 0 0 0
0 0 0 0 0 0 0 0 0 0 0 0 0 0 0 0 0 0 0 0 0 0 0 0 -403 -258 -245 -190 -184 -219 -269 -273 -1 -2 -2 0 0 0 0 0 0 0 0 0 0 0 0 0 0
0 0 0 0 0 0 0 0 0 0 0 0 0 0 0 0 0 0 0 0 0 0 0 0 0 -308 -368 -277 -230 -66 0 0 -1 -2 0 0 0 0 0 0 0 0 0 0 0 0 0 0 0
0 0 0 0 0 0 0 0 0 0 0 0 0 0 0 0 0 0 0 0 0 0 0 0 0 0 0 0 -26 0 0 0 -2 0 0 0 0 0 0 0 0 0 0 0 0 0 0 0 0
0 0 0 0 0 0 0 0 0 0 0 0 0 0 0 0 0 0 0 0 0 0 0 0 0 0 0 0 -1 -1 0 0 0 0 0 0 0 0 0 0 0 0 0 0 0 0 0 0 0
0 0 0 0 0 0 0 0 0 0 0 0 0 0 0 0 0 0 0 0 0 0 0 0 0 0 0 0 0 -1 -3 0 0 0 0 0 0 0 0 0 0 0 0 0 0 0 0 0 0
0 0 0 0 0 0 0 0 0 0 0 0 0 0 0 0 0 0 0 0 0 0 0 0 0 0 0 0 0 0 0 0 0 0 0 0 0 0 0 0 0 0 0 0 0 0 0 0 0
0 0 0 0 0 0 0 0 0 0 0 0 0 0 0 0 0 0 0 0 0 0 0 0 0 0 0 0 0 0 0 0 0 0 0 0 0 0 0 0 0 0 0 0 0 0 0 0 0
0 0 0 0 0 0 0 0 0 0 0 0 0 0 0 0 0 0 0 0 0 0 0 0 0 0 0 0 0 0 0 0 0 0 0 0 0 0 0 0 0 0 0 0 0 0 0 0 0
0 0 0 0 0 0 0 0 0 0 0 0 0 0 0 0 0 0 0 0 0 0 0 0 0 0 0 0 0 0 0 0 0 0 0 0 0 0 0 0 0 0 0 0 0 0 0 0 0
0 0 0 0 0 0 0 0 0 0 0 0 0 0 0 0 0 0 0 0 0 0 0 0 0 0 0 0 0 0 0 0 0 0 0 0 0 0 0 0 0 0 0 0 0 0 0 0 0
0 0 0 0 0 0 0 0 0 0 0 0 0 0 0 0 0 0 0 0 0 0 0 0 0 0 0 0 0 0 0 0 0 0 0 0 0 0 0 0 0 0 0 0 0 0 0 0 0
0 0 0 0 0 0 0 0 0 0 0 0 0 0 0 0 0 0 0 0 0 0 0 0 0 0 0 0 0 0 0 0 0 0 0 0 0 0 0 0 0 0 0 0 0 0 0 0 0
0 0 0 0 0 0 0 0 0 0 0 0 0 0 0 0 0 0 0 0 0 0 0 0 0 0 0 0 0 0 0 0 0 0 0 0 0 0 0 0 0 0 0 0 0 0 0 0 0
0 0 0 0 0 0 0 0 0 0 0 0 0 0 0 0 0 0 0 0 0 0 0 0 0 0 0 0 0 0 0 0 0 0 0 0 0 0 0 0 0 0 0 0 0 0 0 0 0
0 0 0 0 0 0 0 0 0 0 0 0 0 0 0 0 0 0 0 0 0 0 0 0 0 0 0 0 0 0 0 0 0 0 0 0 0 0 0 0 0 0 0 0 0 0 0 0 0
0 0 0 0 0 0 0 0 0 0 0 0 0 0 0 0 0 0 0 0 0 0 0 0 0 0 0 0 0 0 0 0 0 0 0 0 0 0 0 0 0 0 0 0 0 0 0 0 0
0 0 0 0 0 0 0 0 0 0 0 0 0 0 0 0 0 0 0 0 0 0 0 0 0 0 0 0 0 0 0 0 0 0 0 0 0 0 0 0 0 0 0 0 0 0 0 0 0
0 0 0 0 0 0 0 0 0 0 0 0 0 0 0 0 0 0 0 0 0 0 0 0 0 0 0 0 0 0 0 0 0 0 0 0 0 0 0 0 0 0 0 0 0 0 0 0 0
0 0 0 0 0 0 0 0 0 0 0 0 0 0 0 0 0 0 0 0 0 0 0 0 0 0 0 0 0 0 0 0 0 0 0 0 0 0 0 0 0 0 0 0 0 0 0 0 0
0 0 0 0 0 0 0 0 0 0 0 0 0 0 0 0 0 0 0 0 0 0 0 0 0 0 0 0 0 0 0 0 0 0 0 0 0 0 0 0 0 0 0 0 0 0 0 0 0
0 0 0 0 0 0 0 0 0 0 0 0 0 0 0 0 0 0 0 0 0 0 0 0 0 0 0 0 0 0 0 0 0 0 0 0 0 0 0 0 0 0 0 0 0 0 0 0 0
0 0 0 0 0 0 0 0 0 0 0 0 0 0 0 0 0 0 0 0 0 0 0 0 0 0 0 0 0 0 0 0 0 0 0 0 0 0 0 0 0 0 0 0 0 0 0 0 0
0 0 0 0 0 0 0 0 0 0 0 0 0 0 0 0 0 0 0 0 0 0 0 0 0 0 0 0 0 0 0 0 0 0 0 0 0 0 0 0 0 0 0 0 0 0 0 0 0
0 0 0 0 0 0 0 0 0 0 0 0 0 0 0 0 0 0 0 0 0 0 0 0 0 0 0 0 0 0 0 0 0 0 0 0 0 0 0 0 0 0 0 0 0 0 0 0 0
0 0 0 0 0 0 0 0 0 0 0 0 0 0 0 0 0 0 0 0 0 0 0 0 0 0 0 0 0 0 0 0 0 0 0 0 0 0 0 0 0 0 0 0 0 0 0 0 0
0 0 0 0 0 0 0 0 0 0 0 0 0 0 0 0 0 0 0 0 0 0 0 0 0 0 0 0 0 0 0 0 0 0 0 0 0 0 0 0 0 0 0 0 0 0 0 0 0
Wind_Speed
13 13 14 13 12 13 10 11 11 11 12 12 14 12 11 13 12 11 18 13 11 15 15 15 16 17 17 17 18 19 21 19 19 14 8 9 9 10 12 13 12 12 13 13 14 15 15 15 16
13 13 14 13 13 13 12 12 11 10 11 13 12 11 10 9 8 11 12 9 9 13 13 12 13 13 15 14 15 16 16 14 12 9 8 10 10 10 11 13 13 12 13 13 14 14 15 15 16
13 14 13 14 15 14 14 12 10 10 10 12 11 10 10 10 10 9 9 11 8 9 9 9 10 9 8 11 11 12 12 9 8 7 8 9 9 9 10 10 11 11 12 13 14 15 15 15 16
14 15 16 13 10 9 10 9 9 9 10 10 11 8 9 9 10 10 11 12 10 9 7 7 7 6 6 6 6 7 6 7 8 8 9 8 7 8 9 10 11 11 12 13 14 15 15 15 16
16 16 13 13 10 9 8 6 9 9 11 12 12 9 8 9 8 9 11 13 13 11 9 7 5 4 6 5 5 5 4 3 5 6 6 6 7 8 9 10 10 11 12 13 14 14 15 15 16
15 16 16 14 13 13 9 8 11 10 10 12 12 7 8 10 9 8 10 12 11 12 12 10 7 4 4 3 3 2 2 1 2 3 4 5 6 7 8 9 10 11 11 12 13 14 15 15 16
14 16 16 17 18 19 17 16 14 14 13 10 13 15 12 12 9 9 8 8 8 10 10 10 10 9 7 2 2 2 2 1 1 1 3 5 6 7 8 9 9 10 11 11 13 14 15 16 17
14 16 18 17 20 19 19 17 16 14 16 16 14 14 16 16 11 9 7 6 5 6 7 8 8 7 6 4 3 2 2 2 2 2 3 5 6 7 7 8 8 9 10 11 12 13 15 16 18
14 17 19 20 19 19 18 20 17 17 17 17 14 12 16 17 11 8 5 3 2 5 7 7 6 6 6 5 4 3 3 2 2 4 4 5 6 8 8 9 8 8 10 11 13 14 15 16 18
16 19 20 17 18 21 21 22 23 21 20 20 17 14 16 15 10 7 4 3 4 6 8 7 7 7 6 5 4 4 3 3 3 4 4 5 6 6 8 9 8 9 10 12 13 15 16 17 18
17 20 20 20 19 21 26 26 23 23 24 21 21 21 18 16 14 10 8 7 8 7 6 8 8 8 8 7 6 6 5 5 5 4 4 4 7 8 9 9 10 11 12 13 14 16 17 18 19
22 19 19 22 22 25 28 29 26 20 15 27 21 23 22 15 10 10 11 11 10 9 10 10 10 10 10 9 9 8 8 8 7 7 6 6 6 7 8 9 10 11 12 13 14 15 17 18 19
19 24 24 24 25 25 28 23 19 16 23 35 27 21 14 13 10 10 11 15 16 14 13 13 13 13 13 12 12 11 11 11 10 9 8 8 8 8 8 8 9 10 11 12 13 15 17 19 20
25 25 27 30 29 28 27 19 18 17 32 39 29 21 17 13 12 11 11 13 14 16 16 16 16 16 16 16 15 15 14 14 13 12 11 10 10 10 10 10 10 11 11 13 14 16 17 19 21
26 35 35 23 33 29 23 22 16 23 39 42 42 35 31 17 17 13 13 14 15 16 18 17 18 17 18 18 18 18 17 17 16 15 14 12 11 11 12 12 12 12 12 12 12 14 16 18 20
32 32 40 32 27 27 25 24 35 34 31 32 35 32 36 29 26 20 18 18 19 19 18 18 18 19 20 20 20 20 19 19 18 17 16 14 14 13 13 13 13 12 12 11 12 14 17 19 21
31 38 32 36 27 30 26 34 25 36 36 29 25 26 33 27 30 25 27 28 27 24 22 20 20 20 21 20 20 21 21 21 20 20 18 17 16 15 15 15 14 13 13 13 14 17 18 20 22
33 34 35 37 37 37 38 30 30 33 35 30 28 37 39 28 33 50 40 35 31 26 22 22 21 21 20 20 20 21 21 21 21 21 20 19 18 17 16 16 15 14 14 15 15 17 19 21 22
34 37 40 41 38 45 39 33 33 26 25 39 35 25 25 23 32 41 38 33 30 26 22 19 19 20 20 21 22 23 23 22 22 22 22 21 20 19 19 18 18 16 15 14 14 17 19 21 22
36 40 45 49 41 40 48 59 54 27 30 23 31 37 29 41 41 42 35 30 27 26 21 19 19 19 21 22 22 24 22 23 22 22 22 21 21 20 20 20 20 18 16 15 15 17 19 21 20
37 39 43 47 47 43 51 59 37 31 26 17 16 17 20 21 37 40 38 34 30 26 21 19 19 19 18 19 20 22 21 23 22 22 23 23 22 21 22 21 20 18 17 17 15 16 17 19 20
41 35 40 45 46 48 37 63 40 34 29 35 21 23 21 31 35 38 42 38 32 31 20 16 16 17 17 17 19 22 24 25 24 24 24 23 23 22 21 20 20 19 18 17 17 15 17 17 18
37 33 36 38 42 46 37 43 45 35 37 32 30 23 29 35 38 46 46 43 39 29 22 19 16 16 17 19 20 21 23 25 24 23 24 24 24 23 22 21 21 20 19 17 16 16 15 16 16
31 34 35 36 37 49 37 37 49 33 24 25 37 36 40 35 47 46 42 40 38 32 27 20 16 15 15 17 19 21 23 23 23 24 25 25 24 23 22 22 21 20 19 18 17 17 17 17 19
30 34 45 45 42 49 36 39 41 39 45 47 41 40 36 39 40 42 44 44 45 37 29 23 18 18 17 18 20 21 22 23 23 22 23 23 24 24 24 23 22 21 19 18 18 18 18 17 18
33 32 39 51 55 58 42 53 53 41 46 50 45 37 34 30 36 40 44 46 40 32 25 20 19 21 18 17 19 20 21 23 23 22 21 22 23 23 23 24 23 22 20 20 19 19 19 18 19
36 40 39 46 47 56 56 57 60 50 42 39 36 31 34 37 38 44 47 40 35 32 24 19 18 20 21 20 21 19 19 20 22 22 23 24 23 24 23 23 23 23 22 21 20 20 20 20 19
36 32 45 41 51 57 52 57 57 63 55 54 51 50 47 49 50 50 44 40 37 32 28 25 23 24 22 22 20 21 23 23 23 24 25 26 27 27 26 25 26 25 24 22 22 22 21 20 20
38 42 40 45 46 57 65 61 57 58 55 54 51 51 54 53 47 43 37 36 34 33 33 33 31 31 31 30 33 34 32 30 29 28 28 29 29 30 30 28 27 27 26 25 24 23 21 21 20
47 52 51 55 58 56 60 63 49 58 60 61 49 43 42 44 43 41 37 34 36 36 36 36 35 35 39 39 40 42 40 37 35 37 36 32 33 31 32 31 30 29 28 28 27 26 24 24 23
Wind_Direction
59 60 63 80 89 87 105 94 97 90 87 77 53 60 55 20 21 40 336 109 60 121 124 123 128 137 139 134 135 142 152 133 133 99 15 355 19 346 302 289 311 327 338 347 349 342 333 334 328
63 80 74 88 82 79 93 104 113 114 97 80 81 79 55 43 48 18 8 101 71 114 118 122 126 123 134 136 135 136 128 111 89 58 10 327 340 2 323 302 307 328 337 335 339 347 350 348 347
76 65 100 87 77 77 80 101 108 106 93 76 76 95 86 70 83 56 91 109 79 110 113 116 121 115 105 118 122 123 118 97 81 20 47 82 57 16 8 350 338 348 348 350 345 344 341 346 347
78 84 63 78 93 107 93 102 91 90 92 93 82 89 103 124 86 110 108 121 112 117 117 118 121 117 106 96 94 98 88 90 96 93 101 79 40 25 18 348 339 347 348 345 343 344 348 351 347
31 45 53 51 73 77 97 98 74 79 69 61 61 79 68 70 96 92 102 124 129 127 125 127 130 130 133 127 122 118 108 90 92 87 73 53 41 32 17 5 358 350 349 346 345 350 353 353 349
30 30 18 28 34 37 53 61 44 51 53 39 35 53 54 54 64 75 98 124 124 133 136 139 140 144 151 157 156 146 133 8 67 59 50 29 17 9 1 360 355 355 357 358 359 358 356 353 352
10 5 1 1 2 2 16 22 21 18 22 27 24 13 30 45 76 69 85 98 111 127 134 144 149 152 156 185 219 243 274 192 124 42 9 356 356 359 354 352 357 356 356 358 357 356 355 353 348
4 358 350 354 351 353 359 7 7 9 360 3 9 7 0 9 32 41 61 90 111 127 141 148 150 154 160 164 176 206 242 251 282 314 330 335 333 336 346 350 353 354 355 351 350 349 348 345 340
1 342 337 339 344 347 353 348 353 355 346 345 347 345 346 349 5 9 16 26 129 162 167 164 167 169 168 169 175 188 193 218 267 298 307 319 325 322 324 330 345 348 347 345 343 342 341 340 338
336 330 332 342 340 337 337 336 334 336 337 332 331 332 335 337 335 325 311 243 219 205 196 195 188 186 188 198 204 213 221 229 261 278 289 300 311 317 321 325 334 339 340 341 340 339 337 336 334
329 320 326 325 326 329 327 326 330 329 328 329 329 332 331 325 318 302 288 278 236 236 246 222 218 213 207 213 219 227 239 246 257 251 257 281 297 303 308 314 319 323 328 332 334 333 332 332 330
317 315 317 322 324 325 321 321 319 319 273 322 323 324 324 321 304 290 279 272 267 261 254 256 240 234 234 241 232 230 234 237 241 246 251 261 278 289 297 304 310 316 321 326 330 333 333 333 332
310 313 314 314 316 316 317 310 306 280 257 312 319 320 310 311 296 288 286 292 291 275 271 259 253 246 246 242 252 244 240 241 241 238 242 253 260 270 284 296 306 314 321 325 328 331 332 332 331
318 317 315 314 313 312 309 281 320 263 316 307 317 316 313 300 292 297 285 258 269 278 269 269 251 248 250 243 247 246 249 250 248 247 244 246 255 263 273 283 293 303 312 319 323 328 330 329 329
318 311 312 313 312 313 319 309 275 262 308 303 302 306 311 306 309 278 269 264 262 264 276 258 254 251 244 242 249 252 254 254 250 249 246 241 247 255 265 275 283 293 304 314 322 329 332 332 331
310 312 306 314 321 320 316 293 262 315 316 314 310 311 310 309 307 294 287 275 288 285 263 263 256 247 244 244 250 255 253 250 250 249 245 240 244 248 259 267 275 286 295 305 313 321 325 328 328
309 303 305 309 315 314 306 308 309 312 313 311 301 294 305 290 279 284 294 293 291 282 273 262 254 247 244 250 255 255 255 252 253 252 245 242 244 247 255 261 267 276 285 293 304 311 317 319 322
304 306 306 306 313 308 305 280 301 307 307 272 273 264 274 287 264 281 300 299 297 290 274 265 260 253 252 258 259 261 258 255 255 251 248 246 247 246 249 258 262 268 276 285 296 304 313 316 319
302 302 302 305 310 306 301 285 302 295 291 266 265 282 279 297 268 305 303 303 302 297 289 270 262 256 255 253 252 257 244 248 250 251 245 243 246 246 249 256 258 262 266 275 288 300 305 311 317
299 300 300 302 307 307 306 275 296 281 267 277 262 263 267 273 276 286 311 312 310 305 293 282 268 263 256 256 256 266 255 259 252 252 246 243 241 242 246 251 253 254 261 270 278 291 300 308 316
297 298 301 301 307 306 306 297 308 316 315 295 295 298 322 323 311 303 313 316 315 312 304 287 273 265 259 260 261 270 269 272 260 254 250 244 239 240 243 246 247 250 257 264 270 281 294 302 312
296 302 302 303 305 304 312 278 308 317 319 313 319 324 333 324 320 320 314 316 317 311 310 299 284 272 261 253 253 250 256 258 256 252 251 245 238 236 235 239 244 248 256 262 269 278 290 300 303
298 304 303 303 301 303 304 304 305 314 316 309 314 326 330 326 324 320 317 313 314 312 309 300 288 275 269 261 257 251 254 261 265 258 253 250 247 243 240 240 243 247 253 258 262 270 280 291 296
305 303 302 302 301 293 298 297 302 310 319 327 315 315 321 325 325 325 323 322 319 315 309 303 290 282 276 267 263 257 258 262 259 258 255 252 249 243 239 238 240 245 248 252 259 267 276 283 292
298 298 296 294 291 290 302 293 285 298 302 306 313 316 316 324 330 334 331 327 323 315 309 304 293 286 284 277 270 265 261 256 253 251 253 249 245 245 243 238 241 244 246 251 258 265 272 277 282
293 289 287 291 290 291 294 286 289 298 302 306 309 312 316 324 331 334 336 334 332 328 320 308 296 292 287 280 275 271 268 265 262 257 252 248 249 246 244 245 248 250 250 255 260 266 271 275 279
291 285 292 290 289 289 287 288 290 297 303 312 316 318 320 323 322 325 329 329 336 339 333 323 312 303 296 290 282 273 266 263 266 265 262 258 254 254 245 242 246 250 249 252 256 263 266 271 275
287 294 290 291 291 287 286 287 288 291 297 301 304 307 309 311 313 317 322 323 326 330 329 325 318 311 306 296 286 278 273 271 270 267 265 262 259 256 253 249 248 251 253 253 254 261 265 265 270
290 287 289 291 286 288 289 287 291 294 301 305 309 308 306 306 311 316 318 323 326 325 323 320 315 310 306 299 288 283 280 277 276 275 270 266 264 257 254 252 252 251 251 252 252 257 258 260 265
288 287 286 283 288 286 287 286 294 295 299 304 313 315 315 313 313 315 316 317 320 321 321 322 319 313 300 295 288 282 281 279 280 278 276 270 265 260 256 254 254 253 253 252 251 254 256 255 258